Orbital Elements at Epoch 2459000.5 (2020-May-31.0) TDB
Reference: JPL 21 (heliocentric ecliptic J2000)
Element | Value | Uncertainty (1-sigma) | Units |
e | .09991801280760017 | 4.0534e-08 | |
a | 3.120964602918701 | 2.2345e-08 | au |
q | 2.809124021752203 | 1.2296e-07 | au |
i | 10.19152531885177 | 4.8247e-06 | deg |
node | 175.7899437406672 | 2.068e-05 | deg |
peri | 154.8145731872295 | 2.9377e-05 | deg |
M | 74.58339754649687 | 2.0838e-05 | deg |
tp | 2458583.274009979086 (2019-Apr-09.77400998) | 0.00011627 | TDB |
period | 2013.871201213251 5.51 | 2.1628e-05 5.921e-08 | d yr |
n | .1787601907128515 | 1.9198e-09 | deg/d |
Q | 3.432805184085198 | 2.4578e-08 | au |
|
| | Orbit Determination Parameters
Additional Information
|